Location: Hurstbourne Priors
(51.2000°N, 1.3667°W)
Time: 10:54:53
(UTC+00:00)

Cosmos 2151 - Pass Details

Date: 09 April 2020
Orbit: 582 x 600 km, 82.5° (Epoch: 25 May)

Event Time Altitude Azimuth Distance (km) Brightness Sun altitude
Rises 21:00:28 0° 352° (N) 2,820 7.2 -18.5°
Reaches altitude 10° 21:02:42 10° 356° (N) 1,915 6.2 -18.8°
Maximum altitude 21:06:53 58° 76° (ENE) 687 3.0 -19.3°
Enters shadow 21:07:38 49° 120° (ESE) 761 3.1 -19.4°
